Date String (YYYY-MM-DD hh:mm:ss) UTC,Instrument flags,Ambient pressure (hPa),Sample flow (lpm),Bypass flow (lpm),Sample temperature (°C),Ambient temperature (°C),ASC tube jacket temperature (°C),LED temperature (°C),Box temperature (°C),Sample RH (%),Span deviation,Mass concentration (μg/m³),Mass concentration (μg/m³),Mass concentration (μg/m³)
DateTimeUTC,F1_M11,P_M11,Q1_M11,Q2_M11,T1_M11,T2_M11,T3_M11,T4_M11,T5_M11,U1_M11,ZSPAN_M11,X0_M11,X2_M11,X1_M11
2023-01-30 19:00:00,,0824.7,4.99,0.00,22.5,21.3,00.0,31.4,24.1,03.9,0000.9,0013.12,0006.80,0006.17
2023-01-30 19:01:00,,0824.7,5.00,0.00,22.4,20.8,00.0,31.4,24.0,04.0,0000.2,0012.60,0006.83,0006.17
2023-01-30 19:02:00,,0824.7,4.99,0.00,22.4,20.4,00.0,31.3,23.8,04.0,-000.5,0012.60,0006.87,0006.20
2023-01-30 19:03:00,,0824.5,5.00,0.00,22.3,20.3,00.0,31.3,23.8,04.1,-000.3,0012.82,0006.89,0006.21
2023-01-30 19:04:00,,0824.5,5.01,0.00,22.2,20.2,00.0,31.3,23.7,04.1,-000.5,0013.46,0006.87,0006.21
2023-01-30 19:05:00,,0824.4,5.01,0.00,22.2,20.3,00.0,31.2,23.7,04.1,-000.8,0013.40,0006.87,0006.21
2023-01-30 19:06:00,,0824.4,5.01,0.00,22.3,21.4,00.0,31.2,24.0,04.0,-000.3,0013.39,0006.88,0006.22
2023-01-30 19:07:00,,0824.4,5.00,0.00,22.4,22.6,00.0,31.2,24.3,03.9,-000.6,0013.10,0006.87,0006.23
2023-01-30 19:08:00,,0824.5,5.01,0.00,22.5,22.5,00.0,31.2,24.4,04.0,-000.3,0012.59,0006.85,0006.23
2023-01-30 19:09:00,,0824.4,5.01,0.00,22.5,22.0,00.0,31.3,24.3,04.1,-000.6,0011.87,0006.90,0006.27
2023-01-30 19:10:00,,0824.6,5.00,0.00,22.4,21.5,00.0,31.3,24.1,04.1,-000.5,0011.72,0006.96,0006.30
2023-01-30 19:11:00,,0824.4,5.00,0.00,22.4,21.2,00.0,31.3,24.1,04.1,-000.5,0011.60,0007.05,0006.36
2023-01-30 19:12:00,,0824.4,5.00,0.00,22.4,21.0,00.0,31.3,24.0,04.1,-000.2,0011.49,0007.06,0006.38
2023-01-30 19:13:00,,0824.4,4.98,0.00,22.3,20.8,00.0,31.3,24.0,04.1,0000.1,0011.45,0007.04,0006.37
2023-01-30 19:14:00,,0824.4,5.01,0.00,22.3,20.7,00.0,31.3,23.9,04.1,0000.8,0011.52,0007.07,0006.38
2023-01-30 19:15:00,,0824.4,5.00,0.00,22.3,20.6,00.0,31.3,23.9,04.2,0000.8,0011.11,0007.12,0006.40
2023-01-30 19:16:00,,0824.3,5.00,0.00,22.3,20.5,00.0,31.2,23.9,04.1,0001.2,0011.85,0007.15,0006.43
2023-01-30 19:17:00,,0824.4,4.99,0.00,22.2,20.8,00.0,31.2,23.9,04.0,0001.0,0012.02,0007.12,0006.43
2023-01-30 19:18:00,,0824.3,5.01,0.00,22.3,22.0,00.0,31.2,24.2,04.1,0001.2,0012.10,0007.12,0006.40
2023-01-30 19:19:00,,0824.4,4.99,0.00,22.5,22.9,00.0,31.2,24.5,04.1,0001.4,0012.15,0007.14,0006.40
2023-01-30 19:20:00,,0824.4,5.00,0.00,22.5,22.6,00.0,31.3,24.5,04.1,0001.3,0012.09,0007.11,0006.37
2023-01-30 19:21:00,,0824.2,5.01,0.00,22.5,22.1,00.0,31.3,24.4,04.0,0000.9,0011.96,0007.04,0006.33
2023-01-30 19:22:00,,0824.1,4.99,0.00,22.5,21.7,00.0,31.3,24.3,04.0,0001.0,0011.85,0006.99,0006.29
2023-01-30 19:23:00,,0824.2,5.00,0.00,22.5,21.4,00.0,31.3,24.2,04.0,0001.7,0011.96,0006.98,0006.29
2023-01-30 19:24:00,,0824.2,5.01,0.00,22.5,21.2,00.0,31.3,24.1,04.0,0002.3,0012.42,0007.02,0006.31
2023-01-30 19:25:00,,0824.2,5.00,0.00,22.4,21.0,00.0,31.3,24.1,04.0,0002.3,0013.06,0007.05,0006.34
2023-01-30 19:26:00,,0824.1,4.98,0.00,22.4,20.9,00.0,31.3,24.1,04.0,0002.9,0012.76,0007.05,0006.36
2023-01-30 19:27:00,,0824.1,5.00,0.00,22.4,20.9,00.0,31.3,24.0,04.1,0003.1,0012.10,0007.10,0006.39
2023-01-30 19:28:00,,0824.1,5.02,0.00,22.4,20.8,00.0,31.3,24.0,04.2,0003.3,0011.81,0007.14,0006.41
2023-01-30 19:29:00,,0824.1,5.00,0.00,22.4,20.7,00.0,31.3,24.0,04.1,0003.5,0012.26,0007.16,0006.44
2023-01-30 19:30:00,,0824.1,5.00,0.00,22.3,20.7,00.0,31.3,24.0,04.1,0003.4,0012.31,0007.16,0006.44
2023-01-30 19:31:00,,0824.1,5.00,0.00,22.4,21.7,00.0,31.2,24.2,04.1,0003.5,0012.29,0007.18,0006.45
2023-01-30 19:32:00,,0824.1,4.99,0.00,22.5,22.8,00.0,31.2,24.5,04.1,0003.6,0012.33,0007.20,0006.47
2023-01-30 19:33:00,,0824.2,4.98,0.00,22.6,22.7,00.0,31.3,24.6,04.1,0003.1,0012.35,0007.20,0006.47
2023-01-30 19:34:00,,0824.1,5.02,0.00,22.6,22.3,00.0,31.3,24.5,04.1,0002.7,0012.17,0007.21,0006.47
2023-01-30 19:35:00,,0824.1,5.00,0.00,22.6,21.9,00.0,31.4,24.4,04.1,0002.5,0011.85,0007.19,0006.46
2023-01-30 19:36:00,,0824.1,4.99,0.00,22.6,21.6,00.0,31.4,24.3,04.1,0002.2,0011.28,0007.16,0006.44
2023-01-30 19:37:00,,0824.1,5.00,0.00,22.6,21.4,00.0,31.4,24.3,04.1,0002.0,0011.29,0007.15,0006.42
2023-01-30 19:38:00,,0824.1,5.02,0.00,22.6,21.2,00.0,31.4,24.3,04.1,0001.3,0011.34,0007.13,0006.41
2023-01-30 19:39:00,,0824.1,4.99,0.00,22.6,21.1,00.0,31.4,24.3,04.1,0001.1,0011.42,0007.16,0006.41
2023-01-30 19:40:00,,0824.1,5.00,0.00,22.5,21.1,00.0,31.4,24.2,04.1,0000.6,0010.99,0007.18,0006.42
2023-01-30 19:41:00,,0824.1,5.01,0.00,22.5,21.0,00.0,31.4,24.2,04.1,0000.4,0011.05,0007.22,0006.43
2023-01-30 19:42:00,,0824.1,4.99,0.00,22.5,21.0,00.0,31.4,24.2,04.3,0000.2,0011.18,0007.23,0006.42
2023-01-30 19:43:00,,0824.1,4.99,0.00,22.5,21.0,00.0,31.4,24.2,04.2,0000.3,0011.15,0007.22,0006.42
2023-01-30 19:44:00,,0824.2,5.03,0.00,22.5,20.9,00.0,31.4,24.2,04.3,0000.6,0011.15,0007.21,0006.43
2023-01-30 19:45:00,,0824.2,5.01,0.00,22.5,20.9,00.0,31.4,24.1,04.3,0000.1,0011.15,0007.21,0006.43
2023-01-30 19:46:00,,0824.2,4.99,0.00,22.5,20.9,00.0,31.4,24.1,04.3,-000.2,0011.12,0007.21,0006.41
2023-01-30 19:47:00,,0824.2,4.99,0.00,22.4,21.0,00.0,31.3,24.1,04.1,-000.1,0011.71,0007.21,0006.42
2023-01-30 19:48:00,,0824.4,5.01,0.00,22.5,21.8,00.0,31.3,24.3,04.2,-000.0,0012.31,0007.21,0006.41
2023-01-30 19:49:00,,0824.4,4.99,0.00,22.6,23.0,00.0,31.3,24.6,04.3,0000.3,0012.30,0007.18,0006.40
2023-01-30 19:50:00,,0824.4,4.99,0.00,22.7,23.1,00.0,31.4,24.8,04.2,0000.3,0012.17,0007.14,0006.39
2023-01-30 19:51:00,,0824.3,5.02,0.00,22.8,22.7,00.0,31.4,24.7,04.1,0000.7,0012.19,0007.14,0006.39
2023-01-30 19:52:00,,0824.2,5.00,0.00,22.8,22.3,00.0,31.5,24.7,04.1,0001.0,0012.20,0007.14,0006.40
2023-01-30 19:53:00,,0824.2,4.99,0.00,22.8,22.0,00.0,31.5,24.6,04.1,0001.6,0012.11,0007.12,0006.41
2023-01-30 19:54:00,,0824.2,4.98,0.00,22.8,21.8,00.0,31.5,24.5,04.1,0001.9,0012.17,0007.12,0006.41
2023-01-30 19:55:00,,0824.2,5.00,0.00,22.8,21.6,00.0,31.5,24.5,04.2,0002.2,0012.27,0007.16,0006.40
2023-01-30 19:56:00,,0824.2,4.99,0.00,22.7,21.5,00.0,31.5,24.5,04.2,0002.3,0012.36,0007.19,0006.39
2023-01-30 19:57:00,,0824.2,4.99,0.00,22.7,21.4,00.0,31.5,24.5,04.2,0002.3,0013.03,0007.20,0006.40
2023-01-30 19:58:00,,0824.1,5.00,0.00,22.7,21.4,00.0,31.5,24.5,04.2,0002.1,0012.43,0007.19,0006.39
2023-01-30 19:59:00,,0824.1,5.01,0.00,22.7,21.3,00.0,31.5,24.5,04.1,0002.1,0011.83,0007.18,0006.38
